User: anonymous   Login
Location: Béaulencourt
(50.0796°N, 2.8795°E)
Time: 16:59:31
(UTC+00:00)
Language:

Cosmos 676 Rocket - Orbit

View from above orbital plane
View from above orbital plane
View from above satellite
View from above satellite

Ground track
Ground track

The orbit is defined by the following mean orbital elements,

1 07434U          26064.24263522 +.00000000 +00000-0 +12038-3 0 00002
2 07434  74.0452 124.4885 0021107 325.3463  34.6315 14.38184879    06
Epoch (UTC): 05 March 2026 05:49:23
Eccentricity: 0.0021107
inclination: 74.0452°
perigee height: 749 km
apogee height: 780 km
right ascension of ascending node: 124.4885°
argument of perigee: 325.3463°
revolutions per day: 14.38184879
mean anomaly at epoch: 34.6315°

The dashed part of the orbit path shows where the satellite is in the earth's shadow,  

DLR